{"data":{"norad_id":54234,"epoch":"2026-09-20T02:50:11.148576Z","epoch_age_seconds":48092,"freshness":"FRESH","line1":"1 54234U 22150A   26263.11818459  .00000014  00000+0  27425-4 0  9992","line2":"2 54234  98.7105 200.3253 0000818 313.9360  46.1749 14.19549897200018","mean_motion":14.19549897,"eccentricity":8.18e-5,"inclination_deg":98.7105,"raan_deg":200.3253,"arg_perigee_deg":313.936,"mean_anomaly_deg":46.1749,"bstar":2.7425e-5,"rev_number":20001,"period_min":101.44060473275,"perigee_km":826.28603645559,"apogee_km":827.46477648529,"semimajor_km":7205.0124064704,"source":"CELESTRAK","updated_at":"2026-09-20T09:00:33.221785Z"}}